FW4092 Weather Reports


Display with metric or nautical units.
time (UTC)temp
F
wind
direction
speed
MPH
gust
MPH
rain 1hr
in
rain 24hr
in
rain mn
in
humidity
%
barometer
mb
20260906171748 56 101 1.0 4.0 0.00 0.30 0.15 75 1013.3
20260906171241 56 117 1.0 4.0 0.00 0.30 0.15 75 1013.3
20260906170736 56 114 1.0 3.0 0.00 0.30 0.15 76 1013.3
20260906170230 56 111 1.0 4.0 0.00 0.30 0.15 76 1013.3
20260906165954 56 114 2.0 6.0 0.00 0.30 0.15 77 1013.4
20260906165217 55 105 1.0 6.0 0.00 0.30 0.15 79 1013.3
20260906164711 55 101 1.0 6.0 0.00 0.30 0.15 81 1013.3
20260906164217 53 148 1.0 5.0 0.00 0.30 0.15 84 1013.2
20260906164212 54 138 1.0 5.0 0.00 0.30 0.15 84 1013.3
20260906163154 53 139 1.0 4.0 0.00 0.30 0.15 87 1013.3
20260906162917 52 113 1.0 4.0 0.00 0.30 0.15 90 1013.4
20260906162141 51 134 1.0 3.0 0.00 0.30 0.15 91 1013.4
20260906161909 51 125 1.0 3.0 0.00 0.30 0.15 91 1013.3
20260906161400 51 123 1.0 4.0 0.00 0.30 0.15 92 1013.3
20260906160624 51 124 1.0 4.0 0.00 0.30 0.15 92 1013.3
20260906160118 51 132 1.0 3.0 0.00 0.30 0.15 93 1013.3
20260906155843 51 132 1.0 4.0 0.00 0.30 0.15 93 1013.3
20260906155106 51 129 1.0 4.0 0.00 0.30 0.15 92 1013.3
20260906154600 51 135 1.0 4.0 0.00 0.30 0.15 92 1013.2
20260906154055 51 141 1.0 4.0 0.00 0.30 0.15 93 1013.2
20260906153548 51 131 1.0 5.0 0.00 0.30 0.15 94 1013.2
20260906153041 51 140 1.0 5.0 0.00 0.30 0.15 95 1013.1
20260906152536 50 135 1.0 5.0 0.00 0.30 0.15 95 1013.0
20260906152029 50 134 1.0 5.0 0.00 0.30 0.15 95 1013.0
20260906151525 50 134 1.0 5.0 0.00 0.30 0.15 96 1013.0
20260906151018 49 134 1.0 5.0 0.00 0.30 0.15 96 1013.0
20260906150512 48 145 1.0 4.0 0.00 0.30 0.15 96 1012.9
20260906150006 48 147 2.0 4.0 0.00 0.30 0.15 96 1012.9
20260906145501 48 146 1.0 4.0 0.00 0.30 0.15 95 1012.9
20260906145224 48 156 1.0 4.0 0.00 0.30 0.15 96 1012.9
20260906144449 48 169 1.0 4.0 0.00 0.30 0.15 96 1012.8
20260906143942 48 174 1.0 2.0 0.00 0.30 0.15 96 1012.9
20260906143710 48 175 0.0 3.0 0.00 0.30 0.15 96 1012.9
20260906142929 47 177 0.0 3.0 0.00 0.30 0.15 96 1012.9
20260906142423 47 185 0.0 1.0 0.00 0.30 0.15 96 1012.8
20260906141918 47 185 0.0 1.0 0.00 0.30 0.15 95 1012.7
20260906141412 47 185 0.0 1.0 0.00 0.30 0.15 95 1012.8
20260906140905 47 185 0.0 1.0 0.00 0.30 0.15 96 1012.7
20260906140404 47 185 0.0 3.0 0.00 0.30 0.15 95 1012.7
20260906140134 47 185 0.0 3.0 0.00 0.30 0.15 95 1012.7
20260906135402 47 198 0.0 1.0 0.00 0.30 0.15 95 1012.6
20260906135132 47 198 0.0 3.0 0.00 0.30 0.15 95 1012.6
20260906134632 47 198 1.0 3.0 0.00 0.30 0.15 95 1012.4
20260906133902 47 197 1.0 3.0 0.00 0.30 0.15 95 1012.4
20260906133402 47 196 1.0 3.0 0.00 0.30 0.15 95 1012.4
20260906133159 47 193 1.0 4.0 0.00 0.30 0.15 95 1012.6
20260906133152 47 192 1.0 4.0 0.00 0.30 0.15 95 1012.4
20260906131902 47 190 2.0 4.0 0.00 0.30 0.15 95 1012.6
20260906131401 47 192 2.0 4.0 0.00 0.30 0.15 95 1012.6
20260906130858 47 215 1.0 4.0 0.00 0.30 0.15 95 1012.6
20260906130358 47 232 0.0 0.0 0.00 0.30 0.15 95 1012.4
20260906125900 47 232 0.0 0.0 0.00 0.30 0.15 95 1012.4
20260906125358 47 232 0.0 0.0 0.00 0.30 0.15 95 1012.6
20260906124858 47 232 0.0 0.0 0.00 0.30 0.15 95 1012.4
20260906124358 47 232 0.0 0.0 0.00 0.30 0.15 95 1012.4
20260906123901 47 232 0.0 0.0 0.00 0.30 0.15 95 1012.4
20260906123359 47 232 0.0 2.0 0.01 0.30 0.15 95 1012.4
20260906122858 47 232 0.0 2.0 0.01 0.30 0.15 95 1012.3
20260906122351 47 233 0.0 2.0 0.01 0.30 0.15 95 1012.4
20260906121845 47 232 1.0 2.0 0.02 0.30 0.15 95 1012.6
20260906121339 47 232 1.0 2.0 0.02 0.30 0.15 95 1012.7
20260906120833 47 232 1.0 3.0 0.03 0.30 0.15 95 1012.7
20260906120327 47 233 1.0 3.0 0.03 0.30 0.15 95 1012.8
20260906115821 47 238 1.0 3.0 0.03 0.30 0.15 95 1012.8
20260906115550 48 238 1.0 3.0 0.03 0.30 0.15 95 1012.9
20260906114810 48 247 1.0 4.0 0.04 0.30 0.15 96 1012.9
20260906114302 48 249 1.0 4.0 0.05 0.30 0.15 95 1012.8
20260906114039 48 246 1.0 3.0 0.07 0.30 0.15 95 1013.0
20260906113251 48 244 1.0 3.0 0.07 0.29 0.14 96 1013.0
20260906112745 49 244 1.0 4.0 0.08 0.29 0.14 96 1013.1
20260906112239 49 244 1.0 4.0 0.08 0.28 0.13 96 1013.2
20260906111732 49 263 1.0 3.0 0.09 0.28 0.13 96 1013.2
20260906111504 49 315 1.0 3.0 0.09 0.28 0.13 96 1013.2
20260906110721 49 322 0.0 3.0 0.09 0.27 0.12 96 1013.1
20260906110215 49 156 0.0 1.0 0.09 0.27 0.12 96 1013.3
20260906105709 49 156 0.0 0.0 0.09 0.27 0.12 96 1013.3
20260906105203 49 156 0.0 2.0 0.09 0.27 0.12 96 1013.3
20260906104659 49 156 1.0 4.0 0.09 0.26 0.11 95 1013.3
20260906104151 49 159 1.0 4.0 0.07 0.24 0.09 95 1013.4
20260906103645 49 184 1.0 4.0 0.06 0.23 0.08 95 1013.6
20260906103142 49 150 0.0 2.0 0.05 0.22 0.07 96 1013.6
20260906102127 49 278 0.0 2.0 0.04 0.20 0.05 96 1013.5
20260906101621 49 279 0.0 2.0 0.03 0.19 0.04 96 1013.5
20260906101115 49 282 0.0 2.0 0.02 0.18 0.03 95 1013.4
20260906100844 49 282 0.0 2.0 0.02 0.18 0.03 95 1013.4
20260906100106 49 284 0.0 2.0 0.02 0.18 0.03 95 1013.3
20260906095830 49 284 1.0 4.0 0.02 0.18 0.03 95 1013.3
20260906095051 49 281 1.0 4.0 0.02 0.18 0.03 95 1013.3
20260906094821 49 28 0.0 3.0 0.01 0.17 0.02 95 1013.3
20260906094047 49 52 0.0 0.0 0.01 0.17 0.02 95 1013.4
20260906094039 49 49 0.0 1.0 0.01 0.17 0.02 95 1013.3
20260906093027 49 52 0.0 0.0 0.01 0.17 0.02 95 1013.2
20260906092521 49 52 0.0 0.0 0.01 0.16 0.01 95 1013.2
20260906092015 49 52 0.0 1.0 0.01 0.16 0.01 95 1013.1
20260906091509 49 52 0.0 1.0 0.01 0.16 0.01 95 1013.2
20260906091002 49 52 0.0 0.0 0.01 0.16 0.01 95 1013.2
20260906090458 49 52 0.0 0.0 0.01 0.16 0.01 95 1013.2
20260906085951 49 52 0.0 0.0 0.01 0.16 0.01 95 1013.2
20260906085445 49 52 0.0 0.0 0.01 0.16 0.01 95 1013.3
20260906084939 49 52 0.0 0.0 0.01 0.16 0.01 95 1013.3
20260906084433 49 52 0.0 1.0 0.01 0.17 0.01 95 1013.3
20260906084207 49 52 0.0 1.0 0.01 0.17 0.01 95 1013.4
20260906083428 49 52 0.0 0.0 0.01 0.17 0.01 95 1013.4
20260906083200 49 52 0.0 1.0 0.01 0.17 0.01 95 1013.5
20260906082423 49 52 0.0 1.0 0.00 0.16 0.00 95 1013.6
20260906081921 49 52 0.0 1.0 0.00 0.16 0.00 95 1013.8
20260906081423 49 52 0.0 0.0 0.00 0.16 0.00 95 1013.6
20260906080921 49 52 0.0 2.0 0.00 0.16 0.00 95 1013.6
20260906080419 49 52 0.0 2.0 0.00 0.16 0.00 95 1013.6
20260906075919 49 52 0.0 2.0 0.00 0.16 0.00 95 1013.5
20260906075419 49 52 0.0 2.0 0.00 0.16 0.00 95 1013.5
20260906074919 49 52 0.0 1.0 0.00 0.16 0.00 95 1013.5
20260906074419 49 52 0.0 3.0 0.00 0.16 0.00 95 1013.5
20260906073919 49 52 0.0 3.0 0.00 0.16 0.00 95 1013.5
20260906073419 49 42 0.0 1.0 0.00 0.16 0.00 94 1013.5
20260906073147 49 41 0.0 2.0 0.00 0.16 0.00 94 1013.2
20260906072419 49 41 0.0 3.0 0.00 0.16 0.00 94 1013.5
20260906071919 49 41 0.0 4.0 0.01 0.16 0.00 94 1013.3
20260906071419 49 38 0.0 4.0 0.01 0.16 0.00 94 1013.0
20260906070919 49 41 1.0 5.0 0.02 0.16 0.00 94 1013.2
20260906070645 49 355 2.0 5.0 0.03 0.16 0.00 94 1013.0
20260906065916 49 348 1.0 5.0 0.05 0.16 0.16 94 1013.0
20260906065417 49 350 0.0 3.0 0.05 0.16 0.16 94 1013.1
20260906064917 49 0 1.0 4.0 0.06 0.16 0.16 94 1013.3
20260906064414 49 355 2.0 9.0 0.07 0.16 0.16 94 1013.4
20260906063915 49 19 2.0 9.0 0.08 0.16 0.16 94 1013.5
20260906063414 49 339 1.0 5.0 0.09 0.16 0.16 94 1013.5
20260906062913 49 350 2.0 5.0 0.09 0.16 0.16 94 1013.6
20260906062648 49 5 3.0 9.0 0.11 0.16 0.16 94 1013.5
20260906061912 49 338 4.0 9.0 0.10 0.15 0.15 93 1013.4
20260906061411 49 342 3.0 8.0 0.11 0.15 0.15 93 1013.6
20260906060910 49 339 2.0 8.0 0.11 0.14 0.14 93 1013.9
20260906060648 49 336 1.0 4.0 0.11 0.13 0.13 93 1014.1
20260906060142 49 325 0.0 3.0 0.09 0.11 0.12 93 1014.2
20260906055408 49 327 1.0 7.0 0.09 0.11 0.11 92 1014.2
20260906054908 49 327 2.0 7.0 0.08 0.10 0.10 92 1014.3
20260906054409 49 349 2.0 7.0 0.07 0.09 0.09 92 1014.3
20260906053909 49 295 3.0 9.0 0.06 0.08 0.08 91 1014.3
20260906053639 49 304 4.0 12.0 0.05 0.07 0.07 91 1014.3
20260906052901 49 308 5.0 12.0 0.05 0.07 0.07 90 1014.3
20260906052354 50 257 4.0 10.0 0.03 0.05 0.06 90 1014.4
20260906051848 50 269 6.0 11.0 0.02 0.04 0.04 89 1014.4
20260906051343 50 236 7.0 13.0 0.02 0.04 0.04 87 1014.4
20260906050836 51 266 7.0 17.0 0.02 0.03 0.03 85 1014.5
20260906050602 52 291 6.0 17.0 0.01 0.02 0.02 84 1014.4
20260906045824 52 287 6.0 13.0 0.01 0.02 0.02 83 1014.4
20260906045318 53 244 6.0 14.0 0.01 0.02 0.02 82 1014.4
20260906044812 52 227 6.0 14.0 0.01 0.02 0.02 82 1014.3
20260906044536 52 240 5.0 11.0 0.01 0.02 0.02 83 1014.1
20260906043800 52 274 4.0 9.0 0.01 0.02 0.02 84 1014.0
20260906043254 52 283 4.0 9.0 0.01 0.02 0.02 84 1013.9
20260906042748 53 273 5.0 9.0 0.01 0.02 0.02 83 1013.8
20260906042241 53 286 5.0 9.0 0.01 0.02 0.02 82 1013.8
20260906041736 53 290 5.0 9.0 0.01 0.03 0.02 81 1013.6
20260906041230 53 298 5.0 10.0 0.01 0.03 0.02 79 1013.6
20260906040726 54 301 5.0 10.0 0.00 0.02 0.01 77 1013.5
20260906040218 55 284 6.0 11.0 0.00 0.03 0.01 74 1013.4
20260906035711 56 290 6.0 11.0 0.00 0.04 0.01 70 1013.4
20260906035206 56 287 6.0 12.0 0.00 0.04 0.01 68 1013.3
20260906034932 57 286 7.0 13.0 0.00 0.04 0.01 65 1013.3
20260906034154 57 296 6.0 13.0 0.00 0.04 0.01 64 1013.2
20260906033648 57 274 5.0 12.0 0.00 0.04 0.01 64 1013.1
20260906033142 57 281 5.0 12.0 0.00 0.04 0.01 63 1013.1
20260906032636 57 295 5.0 12.0 0.00 0.04 0.01 62 1012.9
20260906032133 58 298 5.0 10.0 0.00 0.04 0.01 62 1012.9
20260906031624 58 277 6.0 10.0 0.00 0.04 0.01 61 1012.9
20260906031347 58 324 6.0 11.0 0.00 0.04 0.01 60 1012.7
20260906030616 59 267 6.0 11.0 0.00 0.04 0.01 59 1012.7
20260906030117 59 263 6.0 13.0 0.00 0.04 0.01 59 1012.7
20260906025616 60 344 5.0 13.0 0.00 0.04 0.01 58 1012.6
20260906025115 60 260 4.0 11.0 0.00 0.04 0.01 56 1012.4
20260906024615 60 313 4.0 8.0 0.00 0.04 0.01 56 1012.3
20260906024116 60 309 4.0 8.0 0.00 0.04 0.01 56 1012.4
20260906023622 60 329 4.0 8.0 0.00 0.04 0.01 56 1012.4
20260906023347 60 313 4.0 9.0 0.00 0.04 0.01 56 1012.4
20260906022616 61 296 4.0 11.0 0.00 0.04 0.01 56 1012.3
20260906022116 61 313 4.0 11.0 0.00 0.04 0.01 55 1012.2
20260906021616 61 326 5.0 11.0 0.00 0.04 0.01 54 1012.2
20260906021115 61 307 5.0 11.0 0.00 0.04 0.01 53 1012.3
20260906020616 61 313 4.0 10.0 0.00 0.04 0.01 52 1012.3
20260906020116 62 323 4.0 10.0 0.00 0.04 0.01 52 1012.3
20260906015616 62 300 4.0 10.0 0.00 0.04 0.01 51 1012.3
20260906015116 62 339 4.0 10.0 0.00 0.04 0.01 50 1012.3
20260906014851 62 296 5.0 10.0 0.00 0.04 0.01 50 1012.2
20260906014116 62 288 5.0 10.0 0.00 0.04 0.01 49 1012.3
20260906013615 62 309 4.0 11.0 0.00 0.04 0.01 48 1012.4
20260906013115 63 338 5.0 11.0 0.00 0.04 0.01 48 1012.3
20260906012853 63 321 6.0 13.0 0.00 0.04 0.01 48 1012.3
20260906012115 63 334 5.0 13.0 0.00 0.04 0.01 48 1012.3
20260906011616 63 338 5.0 11.0 0.00 0.04 0.01 48 1012.2
20260906011355 64 330 5.0 11.0 0.00 0.04 0.01 49 1012.3
20260906010848 64 321 5.0 12.0 0.00 0.04 0.01 48 1012.2
20260906010115 64 330 5.0 13.0 0.00 0.04 0.01 48 1012.2
20260906005615 64 325 6.0 13.0 0.00 0.04 0.01 48 1012.2
20260906005116 64 355 6.0 13.0 0.00 0.04 0.01 48 1012.2
20260906004615 64 350 7.0 13.0 0.00 0.04 0.01 47 1012.1
20260906004358 64 333 6.0 12.0 0.00 0.04 0.01 48 1012.2
20260906003616 64 330 6.0 12.0 0.00 0.04 0.01 47 1012.1
20260906003116 64 344 6.0 12.0 0.00 0.04 0.01 48 1012.2
20260906002623 64 338 6.0 12.0 0.00 0.04 0.01 47 1012.2
20260906002123 65 331 6.0 14.0 0.00 0.04 0.01 47 1012.2
20260906001617 65 348 5.0 14.0 0.00 0.04 0.01 46 1012.1
20260906001110 65 322 5.0 10.0 0.00 0.04 0.01 47 1012.1
20260906000607 65 345 6.0 12.0 0.00 0.04 0.01 47 1012.2
20260906000100 65 283 7.0 14.0 0.00 0.04 0.01 47 1012.0
20260905235553 65 355 7.0 14.0 0.00 0.04 0.01 47 1012.1
20260905235046 65 301 6.0 13.0 0.00 0.04 0.01 47 1012.0
20260905234541 67 294 6.0 13.0 0.00 0.04 0.01 46 1012.0
20260905234036 67 342 6.0 12.0 0.00 0.04 0.01 44 1012.0
20260905233526 68 321 7.0 14.0 0.00 0.04 0.01 43 1012.0
20260905233022 68 296 7.0 17.0 0.00 0.04 0.01 42 1012.0
20260905232516 68 17 6.0 17.0 0.00 0.04 0.01 43 1012.0
20260905232011 68 298 4.0 11.0 0.00 0.04 0.01 42 1012.1
20260905231734 68 326 3.0 10.0 0.00 0.04 0.01 42 1012.1
20260905230953 68 5 2.0 5.0 0.00 0.04 0.01 42 1012.1
20260905230723 68 323 3.0 7.0 0.00 0.04 0.01 41 1012.1
20260905225947 68 336 2.0 9.0 0.00 0.04 0.01 41 1012.1
20260905225441 68 44 3.0 9.0 0.00 0.05 0.01 41 1012.2
20260905225203 69 5 3.0 9.0 0.00 0.05 0.01 41 1012.2
20260905224430 69 338 2.0 7.0 0.00 0.06 0.01 41 1012.1
20260905223923 69 321 2.0 7.0 0.00 0.06 0.01 41 1012.1
20260905223417 69 322 2.0 6.0 0.00 0.06 0.01 40 1012.2
20260905222911 69 84 1.0 6.0 0.00 0.06 0.01 42 1012.2
20260905222405 68 12 2.0 6.0 0.00 0.06 0.01 43 1012.3
20260905221859 67 76 2.0 8.0 0.00 0.06 0.01 44 1012.3
20260905221353 67 81 2.0 8.0 0.00 0.06 0.01 43 1012.3
20260905221112 67 69 1.0 5.0 0.00 0.06 0.01 43 1012.4
20260905220610 68 57 2.0 8.0 0.00 0.06 0.01 44 1012.2
20260905220107 68 346 3.0 8.0 0.00 0.06 0.01 43 1012.3
20260905215331 68 355 2.0 5.0 0.00 0.06 0.01 44 1012.4
20260905214821 67 346 1.0 4.0 0.00 0.06 0.01 44 1012.6
20260905214319 68 335 3.0 9.0 0.00 0.06 0.01 44 1012.6
20260905213811 69 355 3.0 9.0 0.00 0.06 0.01 42 1012.6
20260905213530 69 16 2.0 7.0 0.00 0.06 0.01 43 1012.7
20260905212803 68 34 2.0 6.0 0.00 0.06 0.01 45 1012.8
20260905212253 68 11 2.0 5.0 0.00 0.06 0.01 45 1012.7
20260905211747 68 11 2.0 5.0 0.00 0.06 0.01 44 1012.8
20260905211241 68 57 2.0 5.0 0.00 0.06 0.01 45 1012.9
20260905210735 68 63 1.0 4.0 0.00 0.06 0.01 46 1012.9
20260905210229 67 118 1.0 4.0 0.00 0.06 0.01 45 1013.0
20260905205723 67 90 1.0 7.0 0.00 0.06 0.01 46 1013.0
20260905205217 67 72 2.0 8.0 0.00 0.06 0.01 45 1013.0
20260905204711 67 17 3.0 8.0 0.00 0.06 0.01 47 1013.0
20260905204433 67 60 2.0 6.0 0.00 0.06 0.01 47 1013.0
20260905203700 67 348 1.0 5.0 0.00 0.06 0.01 46 1013.2
20260905203153 67 80 2.0 8.0 0.00 0.06 0.01 49 1013.1
20260905202646 66 96 1.0 8.0 0.00 0.06 0.01 49 1013.2
20260905202143 65 44 0.0 4.0 0.00 0.06 0.01 48 1013.2
20260905201642 65 0 1.0 6.0 0.00 0.06 0.01 50 1013.3
20260905201149 65 201 1.0 6.0 0.00 0.06 0.01 50 1013.3
20260905201143 65 199 1.0 6.0 0.00 0.06 0.01 49 1013.3
20260905200139 64 104 2.0 7.0 0.00 0.06 0.01 49 1013.4
20260905195651 64 171 2.0 8.0 0.00 0.06 0.01 50 1013.4
20260905195139 64 138 1.0 8.0 0.00 0.06 0.01 51 1013.5
20260905194639 64 131 1.0 5.0 0.00 0.06 0.01 52 1013.5
20260905194135 63 119 2.0 5.0 0.00 0.06 0.01 53 1013.6
20260905193635 63 172 1.0 5.0 0.00 0.06 0.01 54 1013.8
20260905193402 62 105 1.0 4.0 0.00 0.06 0.01 56 1013.6
20260905192636 62 99 1.0 6.0 0.00 0.06 0.01 56 1013.8
20260905192405 62 91 2.0 6.0 0.00 0.06 0.01 57 1013.9
20260905191635 62 80 2.0 6.0 0.00 0.06 0.01 55 1014.0
20260905191408 62 89 2.0 6.0 0.00 0.06 0.01 54 1014.0
20260905190635 62 96 1.0 3.0 0.00 0.06 0.01 59 1014.0
20260905190135 61 47 2.0 5.0 0.00 0.06 0.01 59 1013.9
20260905185907 62 51 2.0 7.0 0.00 0.06 0.01 59 1014.0
20260905185134 62 55 2.0 7.0 0.00 0.06 0.01 60 1014.1
20260905184628 61 114 2.0 6.0 0.00 0.06 0.01 63 1014.0
20260905184122 60 63 2.0 6.0 0.00 0.06 0.01 66 1014.0
20260905183616 60 89 2.0 7.0 0.00 0.06 0.01 65 1014.1
20260905183110 60 100 2.0 7.0 0.00 0.06 0.01 66 1014.2
20260905182604 59 78 1.0 7.0 0.00 0.06 0.01 69 1014.3
20260905182059 59 114 1.0 4.0 0.00 0.06 0.01 71 1014.4
20260905181552 58 127 2.0 6.0 0.00 0.06 0.01 71 1014.5
20260905181044 57 121 1.0 6.0 0.00 0.06 0.01 74 1014.6
20260905180819 55 96 1.0 4.0 0.00 0.06 0.01 78 1014.6
20260905180543 56 139 1.0 5.0 0.00 0.06 0.01 75 1014.7
20260905175020 54 90 1.0 4.0 0.00 0.06 0.01 81 1014.8
20260905174514 53 147 1.0 6.0 0.00 0.06 0.01 82 1014.8
20260905174009 53 148 1.0 6.0 0.00 0.06 0.01 82 1015.0
20260905173502 52 166 1.0 6.0 0.00 0.06 0.01 86 1015.0
20260905173006 51 123 0.0 3.0 0.00 0.06 0.01 88 1015.0
20260905173000 51 171 1.0 6.0 0.00 0.06 0.01 85 1015.1